Regional Weather Roundup
Issued by NWS

Home | Current Version | Previous Version | Graphics & Text | Print | Product List | Glossary On
Versions: 1 2 3 4 5 6 7 8 9 10 11 12 13 14 15 16 17 18 19 20 21 22 23 24 25 26 27 28 29 30 31 32 33 34 35 36 37 38 39 40 41 42 43 44 45 46 47 48 49 50
000
ASUS45 KCYS 260010
RWRWY

WYOMING REGIONAL WEATHER ROUNDUP
NATIONAL WEATHER SERVICE CHEYENNE WY
500 PM MST SAT FEB 25 2017

NOTE:  "FAIR" INDICATES FEW OR NO CLOUDS BELOW 12,000 FEET
WITH NO SIGNIFICANT WEATHER AND/OR OBSTRUCTIONS TO VISIBILITY.

WYZ001-260100-
YELLOWSTONE NATIONAL PARK

CITY           SKY/WX    TMP DP  RH WIND       PRES   REMARKS
LK YELLOWSTONE   N/A      9   0  67 VRB6      29.72R WCI  -1
6HR MIN TEMP:   9; 6HR MAX TEMP:  14;

W YELLOWSTONE  NOT AVBL

$$
WYZ002>013-054>058-071-098>099-260100-
NORTHERN WYOMING

CITY           SKY/WX    TMP DP  RH WIND       PRES   REMARKS
JACKSON        CLOUDY    16   9  73 S13       29.83S WCI   2
CODY           FAIR      25   3  38 W20G31    29.69S WCI  11
GREYBULL       FAIR      33   7  33 W12       29.70F WCI  24
6HR MIN TEMP:  28; 6HR MAX TEMP:  34;

WORLAND        MOCLDY    31   9  39 SW5       29.70F WCI  26
6HR MIN TEMP:  26; 6HR MAX TEMP:  32;

SHERIDAN       MOCLDY    30  17  58 NE8       29.68F WCI  22
6HR MIN TEMP:  25; 6HR MAX TEMP:  32;

BUFFALO        FAIR      23  12  62 S6        29.66F WCI  16
6HR MIN TEMP:  23; 6HR MAX TEMP:  26;

GILLETTE       FAIR      29  12  49 NW3       29.66F
6HR MIN TEMP:  24; 6HR MAX TEMP:  30;

HULETT         CLOUDY    28  21  74 SW9       29.68S WCI  20
NEWCASTLE      FAIR      21  12  68 SE9       29.72F WCI  11

$$
WYZ014>020-022>026-101>103-260100-
CENTRAL WYOMING

CITY           SKY/WX    TMP DP  RH WIND       PRES   REMARKS
BIG PINEY      FAIR       7   1  76 CALM      29.81F
6HR MIN TEMP:   2; 6HR MAX TEMP:  12; 6HR PCP: TRACE;

PINEDALE       FAIR      10   3  72 N5        29.81S WCI   2
DUBOIS         FAIR      12   0  57 NW30G38   29.66S HAZE    WCI  -9
LANDER         FAIR      21   0  39 W7        29.71F WCI  12
6HR MIN TEMP:   9; 6HR MAX TEMP:  23;

RIVERTON       FAIR      19   4  51 SW6       29.72F WCI  11
6HR MIN TEMP:  13; 6HR MAX TEMP:  20;

CASPER         FAIR      19   8  62 SW24G36   29.72F WCI   2
6HR MIN TEMP:  15; 6HR MAX TEMP:  20; 6HR PCP: TRACE;

DOUGLAS        FAIR      20   8  60 W9        29.73F WCI   9
6HR MIN TEMP:  15; 6HR MAX TEMP:  24;


$$
WYZ021-027>030-104>119-260100-
SOUTHERN WYOMING

CITY           SKY/WX    TMP DP  RH WIND       PRES   REMARKS
EVANSTON       LGT SNOW  16   9  74 W14       29.87S WCI   2
6HR MIN TEMP:  13; 6HR MAX TEMP:  19; 6HR PCP: TRACE;

FORT BRIDGER   CLOUDY    18  13  82 W18       29.88S WCI   2
ROCK SPRINGS   FAIR      17  10  74 W18G28    29.83R WCI   1
6HR MIN TEMP:  14; 6HR MAX TEMP:  20; 6HR PCP: TRACE;

DIXON            N/A     22   4  46 W16       29.87S WCI   8
RAWLINS        FAIR      17   6  62 W24G32    29.76F WCI  -1
6HR MIN TEMP:  14; 6HR MAX TEMP:  18; 6HR PCP: TRACE;

SARATOGA       FAIR      16  10  79 W14       29.80S WCI   1
LARAMIE        FAIR      15   3  59 W26G35    29.71F WCI  -4
6HR MIN TEMP:  15; 6HR MAX TEMP:  20;

CHEYENNE       FAIR      21   5  50 W21G30    29.74F WCI   5
6HR MIN TEMP:  21; 6HR MAX TEMP:  26;

TORRINGTON     FAIR      26  11  52 W16G24    29.77F WCI  14
6HR MIN TEMP:  16; 6HR MAX TEMP:  27;

PINE BLUFFS    FAIR      27  10  50 W21G38    29.80S WCI  13

$$



USA.gov is the U.S. government's official web portal to all federal, state and local government web resources and services.